This demonstration page uses our WeatherBlox Daily Observations layout. Learn more.

Left ArrowRight Arrow

41.55636, -103.73856

Hourly Observations for May 5, 2020

Temp ( °F °C ) Dew Point ( °F °C ) Humidity (%) Winds ( mph kmh ) Pressure ( in mb ) Visibility ( mi km ) Precip ( " mm )
12:58 am 00:58 Clear 49 9.4 37 2.8 64 64 NNW 14 22 30.18 1022 10 16 N/A
1:58 am 01:58 Clear 45 7.2 38 3.3 77 77 NNW 9 15 30.20 1023 10 16 N/A
2:58 am 02:58 Clear 43 6 36 2.3 77 77 W 6 9 30.23 1024 10 16 N/A
3:58 am 03:58 Clear 38 3.6 36 2 89 89 WSW 6 9 30.23 1024 10 16 N/A
4:58 am 04:58 Clear 38 3.3 35 1.4 88 88 W 8 13 30.23 1024 10 16 N/A
5:58 am 05:58 Clear 37 2.8 34 0.9 87 87 NW 5 7 30.23 1024 10 16 N/A
6:58 am 06:58 Clear 37 2.9 33 0.6 85 85 W 3 6 30.24 1024 10 16 N/A
7:58 am 07:58 Clear 35 1.5 33 0.3 92 92 W 5 7 30.24 1024 10 16 N/A
8:58 am 08:58 Clear 35 1.6 32 undefined 89 89 SW 6 9 30.23 1024 10 16 N/A
9:58 am 09:58 Clear 35 1.5 31 -0.3 88 88 WNW 6 9 30.23 1024 10 16 N/A
10:58 am 10:58 Clear 34 1.1 31 -0.8 87 87 SW 8 13 30.25 1024 10 16 N/A
11:58 am 11:58 Sunny 33 0.4 29 -1.5 87 87 WSW 5 7 30.25 1024 10 16 N/A
12:58 pm 12:58 Sunny 36 2.1 32 undefined 86 86 N N/A 30.24 1024 10 16 N/A
1:58 pm 13:58 Sunny 41 5 36 2.1 82 82 NW 7 11 30.26 1025 10 16 N/A
2:58 pm 14:58 Sunny 49 9.7 37 3 63 63 N N/A 30.25 1024 10 16 N/A
3:58 pm 15:58 Sunny 53 11.9 35 1.8 50 50 NNW 5 7 30.24 1024 10 16 N/A
4:58 pm 16:58 Sunny 57 13.7 28 -2 34 34 NNW 16 26 30.22 1023 10 16 N/A
5:58 pm 17:58 Sunny 58 14.6 25 -4 28 28 NNW 7 11 30.21 1023 10 16 N/A
6:58 pm 18:58 Sunny 60 15.7 27 -3 28 28 NNW 14 22 30.21 1023 10 16 N/A
7:58 pm 19:58 Sunny 61 16.1 29 -1.9 29 29 N 16 26 30.19 1023 10 16 N/A
8:58 pm 20:58 Sunny 63 17 27 -2.8 26 26 NW 18 30 30.19 1022 10 16 N/A
9:58 pm 21:58 Sunny 64 17.5 24 -4.2 23 23 NNW 18 30 30.15 1021 10 16 N/A
10:58 pm 22:58 Mostly Cloudy 65 18.1 26 -3.4 23 23 N 15 24 30.14 1021 10 16 N/A
11:58 pm 23:58 Mostly Cloudy 59 14.8 28 -2.3 31 31 NE 20 31 30.19 1022 10 16 N/A

Powered by AerisWeather